LGL556R LIRF-ELLX

Flight info

Callsign LGL556R
Flight time N/A
Altitude 34000
Route NEMBO DCT ELKAP DCT GOVGO DCT DEVOX DCT PIMOT DCT AOSTA DCT ORSUD DCT MOLUS DCT GILIR DCT PENDU DCT IXILU DCT EPL G21 GIVOR
Aircraft B738/M-SDE2E3FGHIRWXY/LB1

Departure

Time N/A
Airport Rome–Fiumicino Leonardo da Vinci International Airport (LIRF)

Arrival

Time 2026-05-05 05:31
Airport Luxembourg-Findel International Airport (ELLX)
Time Latitude Longitude Altitude Speed Heading
2026-05-05 05:07 48.18178 6.05474 30526 ft 475 kts 359°
2026-05-05 05:07 48.21466 6.05577 30034 ft 469 kts 359°
2026-05-05 05:08 48.24706 6.05679 29541 ft 464 kts 359°
2026-05-05 05:08 48.27915 6.05831 29046 ft 459 kts
2026-05-05 05:08 48.31043 6.06650 28545 ft 455 kts 14°
2026-05-05 05:08 48.34011 6.08229 28227 ft 447 kts 24°
2026-05-05 05:09 48.36714 6.10433 27935 ft 439 kts 33°
2026-05-05 05:09 48.39268 6.12943 27561 ft 438 kts 34°
2026-05-05 05:09 48.41765 6.15432 27097 ft 434 kts 34°
2026-05-05 05:09 48.44275 6.17927 26629 ft 430 kts 34°
2026-05-05 05:10 48.46762 6.20380 26143 ft 427 kts 33°
2026-05-05 05:10 48.49245 6.22811 25662 ft 423 kts 33°
2026-05-05 05:10 48.51700 6.25207 25269 ft 418 kts 33°
2026-05-05 05:10 48.54139 6.27587 24744 ft 416 kts 33°
2026-05-05 05:11 48.56558 6.29948 24283 ft 413 kts 33°
2026-05-05 05:11 48.58961 6.32296 23822 ft 409 kts 33°
2026-05-05 05:11 48.60358 6.33663 23544 ft 408 kts 33°
2026-05-05 05:11 48.61703 6.34980 23271 ft 406 kts 33°
2026-05-05 05:12 48.62328 6.35592 23154 ft 405 kts 33°
2026-05-05 05:12 48.62725 6.35981 23074 ft 405 kts 33°
2026-05-05 05:12 48.64216 6.37443 22782 ft 403 kts 33°
2026-05-05 05:12 48.65035 6.38240 22621 ft 402 kts 32°
2026-05-05 05:13 48.67564 6.39971 22116 ft 399 kts 14°
2026-05-05 05:13 48.70237 6.41003 21689 ft 395 kts 13°
2026-05-05 05:13 48.72894 6.42015 21225 ft 393 kts 13°
2026-05-05 05:13 48.75501 6.43022 20766 ft 390 kts 14°
2026-05-05 05:14 48.78119 6.44050 20314 ft 388 kts 14°
2026-05-05 05:14 48.80722 6.45085 19846 ft 385 kts 14°
2026-05-05 05:14 48.82929 6.45972 19454 ft 383 kts 14°
2026-05-05 05:14 48.84485 6.46600 19179 ft 382 kts 14°
2026-05-05 05:15 48.87046 6.47637 18727 ft 380 kts 14°
2026-05-05 05:15 48.89589 6.48669 18266 ft 377 kts 14°
2026-05-05 05:15 48.92116 6.49697 17825 ft 375 kts 14°
2026-05-05 05:15 48.94593 6.50705 17381 ft 372 kts 14°
2026-05-05 05:16 48.97087 6.51722 16936 ft 370 kts 14°
2026-05-05 05:16 48.99559 6.52731 16492 ft 367 kts 14°
2026-05-05 05:16 49.02023 6.53737 16053 ft 365 kts 14°
2026-05-05 05:16 49.04466 6.54734 15614 ft 363 kts 14°
2026-05-05 05:17 49.06893 6.55726 15172 ft 360 kts 14°
2026-05-05 05:17 49.09309 6.56715 14739 ft 358 kts 14°
2026-05-05 05:17 49.11700 6.57696 14305 ft 356 kts 14°
2026-05-05 05:17 49.14088 6.58675 13873 ft 354 kts 14°
2026-05-05 05:18 49.16427 6.59634 13451 ft 352 kts 14°
2026-05-05 05:18 49.18777 6.60600 13019 ft 349 kts 14°
2026-05-05 05:18 49.21123 6.61554 12599 ft 347 kts 12°
2026-05-05 05:18 49.23505 6.61740 12170 ft 342 kts 349°
2026-05-05 05:19 49.25743 6.60667 11744 ft 336 kts 334°
2026-05-05 05:19 49.27868 6.59194 11317 ft 334 kts 333°
2026-05-05 05:19 49.29973 6.57698 10898 ft 332 kts 333°
2026-05-05 05:19 49.32059 6.56221 10549 ft 328 kts 333°
2026-05-05 05:20 49.34100 6.54790 10433 ft 317 kts 333°
2026-05-05 05:20 49.36059 6.53428 10164 ft 312 kts 333°
2026-05-05 05:20 49.38013 6.52074 9974 ft 304 kts 334°
2026-05-05 05:20 49.39919 6.50756 9832 ft 296 kts 334°
2026-05-05 05:21 49.41780 6.49469 9472 ft 296 kts 334°
2026-05-05 05:21 49.43651 6.48173 9177 ft 294 kts 334°
2026-05-05 05:21 49.45508 6.46886 8869 ft 292 kts 333°
2026-05-05 05:21 49.47164 6.45174 8542 ft 286 kts 309°
2026-05-05 05:22 49.48116 6.42576 8271 ft 278 kts 284°
2026-05-05 05:22 49.48343 6.39682 7986 ft 271 kts 265°
2026-05-05 05:22 49.48211 6.36841 7710 ft 269 kts 263°
2026-05-05 05:22 49.48046 6.33988 7408 ft 267 kts 263°
2026-05-05 05:23 49.47880 6.31149 7138 ft 265 kts 263°
2026-05-05 05:23 49.47717 6.28330 6860 ft 264 kts 263°
2026-05-05 05:23 49.47558 6.25523 6573 ft 262 kts 263°
2026-05-05 05:23 49.47405 6.22742 6299 ft 261 kts 263°
2026-05-05 05:24 49.47252 6.19966 6020 ft 260 kts 263°
2026-05-05 05:24 49.47102 6.17210 5740 ft 258 kts 263°
2026-05-05 05:24 49.46952 6.14471 5476 ft 256 kts 263°
2026-05-05 05:24 49.46808 6.11830 5405 ft 246 kts 263°
2026-05-05 05:25 49.46666 6.09241 5297 ft 239 kts 263°
2026-05-05 05:25 49.46529 6.06742 5203 ft 231 kts 263°
2026-05-05 05:25 49.46565 6.04326 5113 ft 224 kts 285°
2026-05-05 05:25 49.47379 6.02387 4984 ft 215 kts 315°
2026-05-05 05:26 49.48580 6.01072 4780 ft 209 kts 328°
2026-05-05 05:26 49.49831 5.99986 4579 ft 204 kts 329°
2026-05-05 05:26 49.51062 5.98929 4365 ft 201 kts 329°
2026-05-05 05:26 49.52316 5.98032 4196 ft 197 kts 349°
2026-05-05 05:27 49.53555 5.98427 4114 ft 183 kts 38°
2026-05-05 05:27 49.54423 5.99859 3922 ft 185 kts 52°
2026-05-05 05:27 49.55907 6.03029 3446 ft 180 kts 59°
2026-05-05 05:28 49.56540 6.04655 3210 ft 175 kts 60°
2026-05-05 05:28 49.57138 6.06263 2983 ft 169 kts 61°
2026-05-05 05:28 49.57702 6.07792 2757 ft 162 kts 61°
2026-05-05 05:28 49.58254 6.09290 2567 ft 157 kts 60°
2026-05-05 05:29 49.58771 6.10685 2346 ft 147 kts 60°
2026-05-05 05:29 49.59269 6.12033 2154 ft 144 kts 60°
2026-05-05 05:29 49.59744 6.13369 2003 ft 142 kts 61°
2026-05-05 05:29 49.60242 6.14707 1766 ft 144 kts 59°
2026-05-05 05:30 49.60726 6.16028 1604 ft 141 kts 61°
2026-05-05 05:30 49.61221 6.17344 1405 ft 142 kts 59°
2026-05-05 05:30 49.61714 6.18659 1213 ft 142 kts 60°
2026-05-05 05:30 49.62175 6.19894 1215 ft 119 kts 60°
2026-05-05 05:31 49.62527 6.20841 1248 ft 85 kts 60°
2026-05-05 05:31 49.62760 6.21467 1230 ft 64 kts 60°
2026-05-05 05:31 49.62941 6.21950 1225 ft 36 kts 60°
2026-05-05 05:31 49.63032 6.22129 1222 ft 16 kts
2026-05-05 05:32 49.63131 6.22064 1230 ft 15 kts 331°
2026-05-05 05:32 49.63177 6.21973 1242 ft 9 kts 255°
2026-05-05 05:32 49.63194 6.21897 1249 ft 9 kts 332°
2026-05-05 05:32 49.63246 6.21853 1238 ft 8 kts 331°
2026-05-05 05:33 49.63297 6.21810 1243 ft 8 kts 331°
2026-05-05 05:33 49.63315 6.21739 1241 ft 7 kts 286°
2026-05-05 05:33 49.63346 6.21695 1246 ft 3 kts 329°
2026-05-05 05:33 49.63352 6.21689 1250 ft 1 kts 329°
2026-05-05 05:34 49.63354 6.21687 1244 ft 0 kts 329°